Wind_Speed
4 5 6 6 5 4 3 2 2 1 2 2 3 3 4 4 4 4 4 5 4 3 3 4 4 5 5 6 3 5 7 6 6 8 9 3 4 3 4 7 9 10 8 6 6
9 7 6 6 7 7 7 6 5 4 3 4 5 6 6 6 5 5 5 5 4 4 3 4 4 4 5 6 3 2 4 4 2 4 6 5 7 5 7 5 7 9 9 7 3
10 10 9 9 8 8 7 8 8 7 6 6 6 6 6 6 6 6 6 5 4 4 3 4 3 4 3 4 2 4 3 5 8 5 8 7 8 7 6 5 5 6 8 8 6
6 6 5 5 5 5 6 6 6 7 7 7 7 8 7 6 6 7 7 7 5 5 3 3 2 3 2 2 1 4 2 4 5 3 7 6 7 4 3 4 6 5 7 7 5
3 3 3 3 3 3 4 5 5 6 7 7 7 9 9 10 9 7 7 9 9 7 5 5 2 2 2 0 3 2 2 2 1 3 5 3 2 3 5 4 5 6 6 6 4
1 1 2 2 2 3 5 6 6 7 7 7 7 8 9 10 10 10 8 7 10 12 9 7 4 4 4 3 3 2 5 4 1 3 1 6 2 4 7 5 3 5 6 5 5
5 5 5 5 6 7 8 8 9 10 9 9 9 9 10 11 11 9 10 10 8 11 11 10 8 7 7 6 5 4 5 4 2 3 5 5 3 5 3 7 7 5 7 6 5
11 11 11 10 11 11 12 12 13 13 13 13 12 11 11 11 12 11 11 11 10 9 9 12 13 10 9 9 9 8 6 3 2 4 4 3 0 3 6 6 5 5 5 8 8
16 16 17 17 17 18 18 18 19 19 18 16 15 14 14 13 12 13 12 11 11 9 8 12 17 13 12 11 12 12 7 9 6 4 4 3 3 2 3 5 5 5 5 8 10
22 23 23 24 23 24 24 24 24 22 21 19 18 17 17 16 15 14 14 13 11 11 7 11 15 15 13 14 10 13 13 11 11 9 7 8 7 7 5 6 7 3 7 7 10
24 25 25 26 26 26 27 27 26 25 23 22 22 21 19 19 19 18 16 15 13 12 10 9 14 14 17 21 24 17 14 15 14 14 12 13 12 7 11 9 8 3 5 7 9
27 28 29 30 30 31 32 31 32 30 29 28 26 26 24 24 22 20 19 17 16 13 11 11 11 18 20 23 20 18 16 18 15 15 13 12 14 13 12 14 12 8 5 8 9
22 23 24 24 25 26 28 29 31 32 31 33 30 30 26 25 25 23 20 19 18 16 14 13 16 19 20 20 21 18 15 15 19 14 12 14 11 9 11 12 13 13 11 9 9
18 19 19 18 18 20 21 23 25 26 26 28 29 30 27 28 25 23 23 21 20 18 17 15 15 19 18 16 18 17 17 20 19 14 10 14 5 7 11 12 14 13 13 12 10
18 19 18 18 17 17 17 18 19 20 24 24 24 25 25 26 25 23 23 22 21 20 17 17 18 17 16 16 18 14 23 21 20 18 15 13 9 17 11 12 13 12 12 11 12
17 19 19 19 17 17 17 17 17 19 22 23 22 22 24 25 25 23 21 22 21 18 17 19 15 13 15 19 18 22 20 20 19 18 13 11 10 11 11 16 15 11 9 10 13
19 20 22 22 19 19 18 18 20 20 21 22 22 22 25 27 25 25 23 22 20 19 19 22 17 16 18 18 21 22 21 15 13 14 10 20 13 13 14 14 16 13 11 8 8
23 22 24 24 23 22 23 23 22 22 23 22 22 23 24 27 25 25 25 23 21 19 20 21 22 19 18 18 19 20 20 15 15 14 14 21 15 12 14 13 17 18 15 9 6
27 27 27 27 27 27 26 24 24 22 22 23 22 24 26 30 27 26 25 23 22 18 19 21 21 23 22 20 21 21 26 20 21 20 17 15 19 18 16 15 18 20 16 13 10
30 28 27 27 27 26 24 25 26 24 24 26 27 25 28 30 30 27 26 20 18 18 19 23 22 23 23 22 24 25 18 24 21 19 18 15 19 11 18 18 17 16 15 14 12
28 27 25 24 25 24 25 26 28 26 25 27 29 29 30 34 31 31 27 20 20 21 20 20 20 22 26 26 21 25 24 24 18 20 18 18 18 18 20 22 21 19 16 16 15
30 30 30 31 29 29 29 29 29 30 27 27 29 32 32 35 34 35 26 22 22 22 20 16 17 18 19 26 29 22 19 18 17 17 19 18 14 27 23 25 25 22 19 17 17
31 32 32 31 31 31 31 32 30 30 29 29 31 33 35 36 37 37 32 29 26 26 21 19 20 18 21 28 29 27 21 20 17 17 20 13 11 20 21 24 23 22 21 21 22
36 35 35 35 34 34 32 32 32 31 31 29 31 31 36 38 40 40 39 36 33 31 30 27 23 22 14 12 17 23 21 19 17 14 14 16 18 17 15 17 19 21 18 17 18
38 38 39 37 36 35 34 33 33 34 31 32 33 35 37 39 43 42 43 44 37 38 34 32 30 27 26 17 19 15 21 25 21 18 17 14 16 18 19 18 18 18 18 19 20
41 39 39 37 36 34 33 34 33 33 32 32 33 37 36 37 42 49 49 47 46 42 38 36 31 29 26 28 24 21 23 25 21 24 22 20 19 21 18 19 18 17 17 19 21
40 39 39 38 36 35 35 33 33 32 32 33 34 34 34 38 41 43 44 47 46 46 43 42 37 30 23 26 26 25 24 17 15 19 22 23 21 25 22 21 20 19 19 21 23
Wind_Direction
93 90 92 96 97 95 86 66 39 15 346 333 326 327 327 327 343 14 359 329 328 324 328 309 345 358 11 15 40 45 62 68 94 149 154 131 172 125 98 77 77 76 64 110 101
82 85 87 85 80 76 71 62 50 32 359 328 308 303 301 305 318 325 322 331 340 321 314 309 341 345 18 37 83 52 20 16 349 159 190 151 135 132 87 63 82 82 82 92 109
80 80 79 77 76 70 61 51 49 45 33 14 350 330 319 313 295 288 291 308 317 328 328 306 317 343 23 29 13 323 345 348 323 298 189 156 150 121 85 90 90 96 86 91 92
73 76 74 72 73 64 60 54 45 38 34 32 25 17 7 336 307 286 282 273 283 302 311 314 314 321 353 359 287 223 346 350 337 56 163 169 165 124 192 147 126 120 111 94 94
63 67 67 63 58 50 43 26 19 23 21 18 11 6 10 9 358 332 283 269 262 265 279 277 276 260 270 355 330 195 152 45 33 34 90 163 191 235 151 187 148 145 132 118 96
347 7 353 352 353 336 327 328 327 331 338 346 352 353 352 352 354 354 344 288 264 254 251 266 257 232 242 233 258 216 145 99 331 274 91 116 96 216 209 208 195 152 147 147 132
283 284 284 288 293 302 306 310 312 313 314 313 317 321 330 336 341 344 347 339 289 262 249 247 245 228 231 237 236 215 171 138 249 263 252 272 317 239 225 199 190 180 168 164 152
278 280 280 282 284 287 291 296 301 304 306 305 302 301 305 313 320 327 334 338 333 284 258 239 244 232 236 240 241 224 205 235 229 278 275 296 309 86 190 209 200 201 189 166 167
274 274 275 276 280 284 286 288 289 290 292 295 295 296 295 299 304 310 319 327 332 322 267 244 240 241 234 233 243 245 227 229 238 255 273 300 327 45 177 240 221 225 213 185 178
276 275 275 276 276 279 280 281 282 284 285 288 287 288 287 290 294 297 301 309 317 318 285 250 247 238 228 232 232 237 238 241 242 240 235 271 286 268 257 230 233 274 201 194 195
280 279 278 278 278 278 278 278 279 280 280 279 278 278 278 281 284 286 287 291 296 303 300 258 248 239 219 225 228 237 235 236 249 252 246 248 256 273 263 238 226 233 187 207 207
284 282 280 278 277 276 275 275 276 276 276 276 275 272 273 275 276 277 277 282 282 286 286 267 243 238 235 234 235 238 239 240 248 251 258 248 249 258 273 257 242 242 238 202 206
290 289 287 286 284 282 278 275 275 276 274 273 271 270 270 271 270 271 273 271 272 274 272 263 248 248 244 234 236 234 234 240 241 248 261 265 265 250 257 241 236 235 232 219 218
300 296 296 293 291 289 284 281 277 277 274 270 268 267 268 266 266 266 266 267 266 265 267 262 260 252 251 247 240 236 231 240 245 242 249 258 247 235 245 233 226 228 237 240 238
306 303 297 297 299 291 283 279 278 278 275 276 273 269 262 262 263 259 259 261 259 261 261 254 252 252 246 243 238 221 222 231 239 243 241 256 252 260 236 239 224 220 231 242 249
305 304 301 301 303 300 293 289 286 281 273 275 272 267 263 260 258 258 257 257 260 258 253 255 253 256 243 235 229 224 223 234 239 246 239 254 233 269 233 228 221 211 216 223 240
304 298 297 297 296 295 295 294 287 284 281 276 275 269 263 261 260 260 260 256 255 257 256 253 247 242 240 235 229 229 222 225 243 248 224 235 245 211 256 224 211 203 211 217 221
303 300 294 293 293 289 292 290 284 281 274 275 271 266 262 259 255 254 255 257 257 257 253 254 253 241 237 233 233 229 220 214 234 235 235 258 242 257 240 218 206 200 216 216 243
297 292 289 285 284 285 287 285 279 275 276 271 265 261 258 258 256 255 255 255 257 254 253 252 245 247 234 226 224 225 217 210 225 235 212 255 256 252 241 223 209 206 219 216 234
293 290 286 285 284 284 284 282 281 276 270 266 261 257 254 253 254 256 257 258 256 253 250 252 243 239 231 221 219 220 218 219 224 229 244 247 257 219 236 221 215 211 207 213 235
292 291 290 288 286 285 284 282 281 277 270 265 263 258 251 249 248 250 251 251 248 254 253 248 238 231 228 218 219 224 212 218 218 231 240 255 254 246 234 229 222 223 218 224 231
293 291 291 291 288 287 283 282 282 278 270 262 254 255 248 248 239 241 240 230 242 246 249 242 231 218 234 223 212 215 222 230 233 254 261 231 226 247 227 226 225 230 235 241 240
295 296 293 291 288 286 285 284 281 277 268 262 256 251 251 242 236 232 228 223 231 231 229 232 227 217 227 230 222 217 217 214 238 240 238 230 242 253 232 228 232 240 246 248 252
298 298 294 292 289 286 284 280 280 275 269 263 257 254 251 240 236 230 220 215 220 222 222 216 208 218 216 242 238 224 229 234 230 242 238 242 214 242 216 212 219 226 234 243 249
295 294 292 290 289 284 280 277 275 272 268 265 261 253 248 243 235 231 221 217 214 218 215 214 206 214 197 222 212 225 234 239 232 222 226 227 244 217 228 220 222 227 231 237 242
295 289 290 287 286 281 280 277 273 271 268 264 260 257 253 244 238 228 223 220 215 211 210 213 213 215 219 218 219 221 229 243 246 234 240 234 224 227 224 229 236 240 242 243 246
291 289 289 286 281 277 278 273 271 271 269 267 263 257 253 247 239 235 228 221 218 218 210 213 210 210 219 220 223 229 237 248 250 235 237 237 237 233 232 231 235 239 247 254 258
Height
5891 5891 5891 5892 5892 5893 5893 5894 5894 5894 5894 5894 5893 5893 5893 5893 5893 5894 5893 5893 5893 5893 5893 5892 5893 5892 5892 5891 5891 5891 5890 5889 5888 5888 5888 5887 5887 5887 5886 5883 5882 5881 5880 5880 5881
5892 5892 5892 5892 5893 5893 5894 5894 5894 5894 5893 5893 5893 5893 5893 5893 5893 5893 5893 5892 5892 5892 5892 5892 5893 5892 5892 5892 5891 5891 5890 5890 5889 5888 5887 5886 5887 5888 5886 5885 5883 5882 5882 5881 5881
5893 5894 5894 5894 5894 5894 5894 5894 5894 5894 5893 5893 5892 5892 5892 5892 5892 5892 5891 5891 5891 5891 5892 5892 5892 5892 5893 5892 5892 5891 5891 5889 5888 5888 5887 5886 5887 5887 5886 5886 5885 5884 5883 5882 5882
5894 5895 5895 5895 5895 5895 5895 5895 5894 5894 5894 5893 5892 5891 5890 5890 5892 5890 5890 5890 5890 5891 5891 5891 5891 5892 5893 5892 5892 5891 5891 5890 5889 5887 5886 5887 5887 5887 5887 5886 5886 5885 5883 5883 5883
5896 5896 5896 5896 5895 5895 5895 5895 5894 5894 5894 5893 5892 5891 5890 5890 5889 5888 5888 5888 5889 5889 5890 5890 5891 5891 5892 5892 5892 5891 5891 5891 5890 5888 5888 5888 5888 5887 5887 5886 5886 5886 5886 5884 5884
5896 5896 5896 5896 5896 5895 5895 5894 5894 5894 5893 5893 5892 5891 5890 5890 5889 5887 5887 5886 5886 5887 5888 5889 5890 5890 5891 5891 5892 5891 5891 5891 5891 5890 5890 5889 5888 5888 5888 5886 5886 5886 5887 5886 5885
5895 5895 5895 5895 5895 5894 5894 5893 5892 5892 5892 5892 5891 5890 5889 5889 5887 5887 5886 5885 5884 5884 5886 5887 5888 5889 5890 5890 5891 5891 5892 5892 5892 5891 5891 5890 5888 5887 5886 5887 5886 5886 5887 5887 5887
5893 5893 5893 5893 5893 5893 5892 5891 5890 5890 5889 5889 5889 5888 5888 5887 5886 5885 5884 5883 5882 5882 5884 5885 5885 5886 5888 5889 5890 5890 5891 5890 5891 5892 5891 5890 5889 5886 5887 5887 5887 5887 5886 5887 5888
5890 5890 5890 5890 5890 5889 5888 5888 5887 5886 5886 5886 5885 5885 5885 5884 5883 5882 5882 5881 5880 5880 5880 5881 5882 5884 5886 5887 5888 5889 5892 5890 5891 5891 5891 5891 5889 5888 5887 5887 5888 5888 5887 5887 5887
5885 5885 5885 5885 5885 5884 5883 5882 5882 5882 5882 5882 5881 5882 5881 5880 5879 5879 5879 5879 5878 5877 5877 5878 5879 5882 5883 5885 5888 5889 5889 5889 5889 5890 5890 5889 5889 5888 5887 5887 5887 5887 5887 5888 5888
5879 5878 5879 5878 5878 5878 5877 5877 5877 5877 5876 5876 5876 5875 5875 5875 5875 5875 5874 5875 5875 5875 5874 5874 5875 5877 5879 5879 5879 5883 5885 5887 5887 5888 5889 5889 5888 5888 5887 5887 5886 5885 5885 5887 5888
5872 5871 5871 5871 5871 5871 5869 5869 5868 5870 5869 5868 5869 5869 5870 5870 5870 5870 5870 5871 5871 5871 5871 5871 5871 5871 5873 5875 5878 5880 5882 5882 5884 5884 5885 5886 5887 5887 5885 5884 5885 5884 5884 5886 5887
5865 5864 5863 5863 5863 5862 5861 5861 5860 5860 5861 5860 5861 5861 5863 5864 5864 5864 5865 5865 5866 5867 5867 5867 5867 5866 5869 5872 5875 5877 5879 5880 5880 5881 5882 5882 5884 5885 5883 5882 5882 5882 5882 5884 5885
5860 5859 5857 5856 5857 5855 5854 5853 5853 5853 5853 5853 5853 5853 5856 5855 5857 5859 5859 5861 5861 5862 5862 5863 5862 5863 5865 5868 5871 5874 5875 5875 5876 5879 5881 5880 5887 5884 5881 5881 5880 5881 5881 5882 5883
5855 5853 5851 5850 5850 5849 5849 5848 5847 5847 5845 5847 5846 5847 5847 5849 5850 5851 5852 5853 5854 5856 5858 5858 5858 5859 5861 5864 5866 5871 5870 5872 5873 5875 5877 5878 5880 5881 5880 5880 5881 5880 5880 5881 5881
5851 5848 5845 5844 5844 5843 5842 5842 5842 5842 5839 5839 5839 5839 5840 5841 5842 5844 5846 5847 5849 5851 5852 5852 5853 5855 5858 5859 5861 5863 5866 5869 5871 5872 5875 5878 5879 5882 5877 5877 5879 5880 5880 5880 5879
5846 5843 5840 5838 5839 5836 5836 5835 5836 5834 5833 5833 5833 5833 5833 5834 5836 5837 5839 5841 5844 5846 5847 5846 5848 5850 5852 5855 5857 5859 5862 5869 5872 5873 5875 5872 5874 5879 5873 5875 5877 5878 5878 5879 5880
5839 5837 5834 5831 5830 5829 5828 5829 5828 5826 5825 5826 5826 5827 5827 5827 5829 5832 5833 5835 5838 5840 5841 5842 5843 5845 5847 5850 5853 5855 5860 5869 5871 5874 5876 5868 5870 5873 5870 5872 5875 5876 5877 5878 5878
5831 5829 5827 5824 5822 5821 5821 5820 5818 5819 5819 5818 5819 5819 5820 5820 5823 5824 5826 5829 5831 5834 5837 5836 5838 5839 5841 5844 5849 5850 5851 5865 5867 5865 5868 5870 5866 5866 5866 5869 5872 5874 5876 5877 5877
5821 5820 5818 5816 5815 5813 5812 5811 5809 5811 5811 5810 5811 5813 5813 5813 5815 5817 5819 5824 5826 5828 5830 5831 5833 5834 5836 5838 5842 5844 5850 5854 5857 5861 5863 5865 5862 5868 5863 5865 5868 5871 5873 5874 5875
5813 5812 5810 5809 5807 5806 5804 5803 5801 5802 5803 5804 5803 5804 5805 5806 5807 5810 5815 5819 5820 5821 5823 5825 5828 5831 5830 5833 5839 5840 5843 5846 5854 5857 5858 5861 5863 5859 5860 5861 5864 5866 5870 5872 5873
5805 5804 5802 5800 5800 5797 5795 5794 5794 5792 5794 5794 5794 5794 5796 5796 5800 5803 5809 5814 5813 5815 5817 5819 5822 5826 5828 5830 5832 5837 5841 5844 5847 5850 5849 5853 5861 5853 5855 5857 5859 5862 5864 5867 5869
5796 5794 5792 5790 5789 5787 5786 5784 5783 5782 5782 5784 5784 5785 5786 5789 5793 5795 5801 5804 5806 5809 5812 5813 5816 5821 5823 5825 5827 5830 5834 5841 5844 5846 5848 5848 5854 5848 5850 5853 5855 5857 5860 5861 5862
5786 5784 5782 5780 5778 5776 5775 5773 5772 5772 5771 5772 5773 5776 5776 5778 5782 5786 5792 5796 5800 5803 5805 5807 5812 5816 5825 5827 5826 5828 5831 5834 5837 5840 5842 5844 5846 5844 5845 5848 5850 5851 5854 5855 5856
5775 5773 5770 5769 5766 5765 5763 5763 5761 5761 5762 5761 5762 5764 5765 5768 5771 5776 5783 5786 5793 5795 5799 5802 5806 5812 5815 5817 5822 5824 5826 5828 5830 5835 5838 5843 5841 5842 5842 5844 5845 5847 5849 5851 5851
5763 5761 5759 5757 5754 5753 5751 5751 5750 5749 5750 5750 5751 5751 5755 5757 5761 5761 5768 5778 5782 5788 5792 5796 5801 5806 5809 5812 5815 5820 5822 5822 5824 5827 5829 5832 5834 5835 5837 5838 5840 5841 5843 5844 5845
5750 5748 5746 5745 5742 5741 5740 5738 5738 5738 5738 5738 5738 5740 5742 5744 5746 5752 5759 5767 5775 5780 5784 5790 5795 5800 5805 5807 5810 5813 5815 5817 5818 5820 5823 5826 5829 5827 5831 5833 5835 5835 5836 5837 5838